Location: Kalberh�ni
(46.4610°N, 7.2453°E)
Time: 21:18:26
(UTC+00:00)

USA 229 - Pass Details

Date: 28 October 2021
Orbit: 946 x 1266 km, 63.4° (Epoch: 25 November)

Event Time Altitude Azimuth Distance (km) Brightness Sun altitude
Rises 21:52:57 0° 306° (NW) 3,821 7.1 -52.8°
Reaches altitude 10° 21:56:20 10° 323° (NW) 2,924 6.4 -53.1°
Enters shadow 21:56:38 11° 325° (NW) 2,859 6.3 -53.1°
